Total_Precipitation_Accumulation
0.01 0.03 0.07 0.11 0.13 0.16 0.18 0.21 0.24 0.25 0.26 0.33 0.47 0.68 0.90 1.01 1.22 1.33 1.32 1.44 1.82 2.22 2.51 2.79 2.93 3.16 3.49 3.81 4.11 4.44 4.94 5.26 5.18 5.22 5.10 4.91 4.58 4.36 3.95 3.50 3.15 3.10 3.12 3.38
0.02 0.04 0.05 0.07 0.07 0.10 0.15 0.17 0.21 0.25 0.28 0.35 0.41 0.64 0.87 0.90 1.11 1.24 1.34 1.51 1.65 1.85 2.31 2.58 2.60 2.84 3.08 3.62 4.15 4.51 4.55 4.56 4.47 4.71 5.09 5.29 5.21 4.66 4.02 3.63 3.50 3.11 3.05 3.23
0.04 0.06 0.04 0.04 0.04 0.07 0.15 0.18 0.22 0.25 0.30 0.41 0.52 0.97 1.09 1.01 1.08 1.14 1.23 1.41 1.53 1.69 1.87 2.18 2.21 2.30 2.53 3.06 3.60 3.76 3.66 3.64 3.56 3.70 4.10 4.40 4.70 4.46 4.15 3.83 3.57 3.15 3.02 3.05
0.03 0.04 0.04 0.04 0.04 0.05 0.12 0.12 0.15 0.21 0.35 0.58 0.62 1.15 1.39 1.38 1.39 1.20 1.23 1.29 1.55 1.69 1.72 1.87 1.93 1.98 2.05 2.21 2.45 2.67 2.90 3.05 3.08 3.12 3.32 3.56 3.86 3.94 3.93 3.88 3.54 3.15 2.85 2.83
0.04 0.03 0.04 0.07 0.06 0.05 0.08 0.09 0.12 0.19 0.33 0.60 0.61 0.86 1.42 1.61 1.61 1.34 1.25 1.24 1.40 1.40 1.48 1.62 1.73 1.75 1.80 1.95 2.20 2.42 2.73 2.92 2.99 2.95 3.02 3.25 3.59 3.65 3.48 3.37 3.43 3.21 2.91 2.64
0.07 0.05 0.06 0.07 0.06 0.05 0.07 0.10 0.17 0.25 0.42 0.87 0.72 0.82 1.31 1.50 1.37 1.33 1.18 1.10 1.18 1.13 1.28 1.49 1.59 1.66 1.74 1.82 2.05 2.29 2.53 2.55 2.66 2.72 2.72 2.78 3.00 3.16 3.04 2.90 2.92 2.78 2.65 2.54
0.15 0.13 0.10 0.07 0.08 0.07 0.10 0.18 0.60 1.04 1.23 1.18 0.74 0.87 1.38 1.24 1.11 1.11 1.11 1.18 1.18 1.12 1.13 1.29 1.46 1.50 1.65 1.76 1.88 2.03 2.17 2.29 2.32 2.37 2.30 2.26 2.35 2.51 2.52 2.42 2.47 2.39 2.19 2.09
0.25 0.27 0.18 0.10 0.09 0.12 0.16 0.27 0.77 1.10 1.10 1.07 0.90 1.30 1.51 1.10 1.04 1.03 0.96 0.94 0.92 0.88 0.85 0.97 1.15 1.28 1.40 1.56 1.65 1.77 1.90 2.07 2.17 2.21 2.22 2.19 2.15 2.21 2.30 2.40 2.24 2.19 1.94 1.81
0.18 0.19 0.14 0.10 0.09 0.13 0.25 0.32 0.37 0.61 0.75 1.11 1.33 1.57 1.41 1.12 1.12 1.04 1.01 0.92 0.92 0.91 0.89 0.89 1.01 1.12 1.15 1.26 1.38 1.51 1.65 1.84 2.04 2.03 2.17 2.14 1.97 2.04 2.21 2.32 2.22 2.11 2.09 1.96
0.10 0.13 0.14 0.10 0.12 0.17 0.20 0.26 0.35 0.53 0.82 1.16 1.34 1.75 1.96 1.64 1.44 1.17 1.18 1.09 1.02 0.93 0.83 0.84 0.87 0.90 0.89 1.03 1.34 1.46 1.60 1.78 1.90 1.87 1.79 1.69 1.74 1.89 2.03 2.02 1.96 2.08 2.16 2.17
0.09 0.11 0.14 0.16 0.16 0.19 0.22 0.26 0.35 0.45 0.58 0.93 1.38 1.60 1.39 1.39 1.34 1.30 1.17 1.10 1.03 0.95 0.84 0.86 0.94 0.94 0.93 1.04 1.30 1.31 1.37 1.57 1.68 1.66 1.52 1.50 1.56 1.65 1.72 1.74 1.74 1.89 1.97 2.05
0.10 0.13 0.20 0.23 0.19 0.17 0.20 0.24 0.35 0.54 0.59 0.75 1.12 1.37 0.94 1.04 1.08 0.96 0.90 0.89 0.81 0.81 0.79 0.81 0.87 1.00 1.14 1.26 1.22 1.12 1.16 1.21 1.34 1.37 1.36 1.39 1.43 1.41 1.39 1.44 1.55 1.64 1.69 1.74
0.14 0.18 0.34 0.54 0.53 0.32 0.26 0.23 0.28 0.37 0.47 0.60 0.93 1.26 1.00 0.98 1.08 1.00 0.94 0.92 0.84 0.80 0.82 0.84 0.90 0.94 0.99 1.14 1.28 1.10 1.07 1.14 1.25 1.31 1.37 1.46 1.50 1.43 1.38 1.43 1.47 1.46 1.40 1.42
0.13 0.15 0.29 0.55 0.49 0.37 0.32 0.29 0.31 0.38 0.49 0.55 0.68 0.98 1.08 1.07 1.05 1.03 1.01 0.91 0.92 0.88 0.74 0.77 0.90 1.05 1.07 1.07 1.14 1.05 1.02 1.10 1.24 1.46 1.69 1.72 1.65 1.59 1.52 1.42 1.41 1.39 1.32 1.39
0.14 0.14 0.15 0.20 0.27 0.35 0.39 0.30 0.29 0.33 0.40 0.56 0.56 0.72 0.96 1.04 0.97 1.03 1.08 0.89 0.80 0.86 0.82 0.73 0.83 1.02 1.13 1.15 1.15 1.09 1.12 1.18 1.33 1.59 1.75 1.83 1.87 1.80 1.72 1.57 1.44 1.40 1.41 1.38
0.21 0.20 0.21 0.23 0.31 0.38 0.41 0.33 0.26 0.26 0.29 0.35 0.45 0.68 0.78 0.75 0.82 0.90 0.91 0.90 0.92 0.98 0.92 0.84 0.84 0.90 1.06 1.16 1.22 1.25 1.33 1.39 1.45 1.48 1.54 1.69 1.80 1.81 1.74 1.55 1.45 1.49 1.49 1.46
0.36 0.36 0.34 0.37 0.37 0.46 0.51 0.39 0.36 0.31 0.28 0.38 0.60 0.82 0.79 0.76 0.84 0.81 0.83 0.81 0.94 0.99 0.88 0.83 0.86 0.91 0.97 1.00 1.10 1.36 1.38 1.36 1.38 1.45 1.55 1.70 1.74 1.71 1.64 1.49 1.47 1.50 1.48 1.51
0.34 0.43 0.46 0.49 0.64 0.78 0.55 0.36 0.37 0.37 0.40 0.49 0.61 0.69 0.70 0.69 0.75 0.78 0.75 0.74 0.72 0.77 0.74 0.76 0.84 0.92 0.93 0.91 0.92 1.04 1.19 1.31 1.38 1.43 1.50 1.60 1.62 1.68 1.73 1.66 1.57 1.60 1.62 1.55
0.32 0.47 0.54 0.63 0.81 0.69 0.48 0.42 0.44 0.52 0.60 0.62 0.68 0.71 0.71 0.71 0.84 0.94 0.77 0.69 0.65 0.65 0.71 0.82 0.94 0.92 0.91 0.90 0.92 1.03 1.17 1.31 1.46 1.51 1.55 1.55 1.64 1.78 1.81 1.69 1.65 1.70 1.69 1.58
0.38 0.48 0.67 0.76 0.96 0.89 0.69 0.53 0.47 0.61 1.03 0.77 0.72 0.76 0.78 0.82 1.05 1.15 0.87 0.75 0.74 0.77 0.81 0.78 0.77 0.78 0.82 0.94 1.03 1.09 1.26 1.48 1.58 1.59 1.68 1.74 1.78 1.89 1.99 2.00 1.93 1.86 1.83 1.76
0.81 0.79 0.76 0.89 1.03 0.88 0.65 0.54 0.62 1.07 1.32 0.96 0.89 0.87 0.87 0.98 0.95 0.92 0.84 0.76 0.76 0.81 0.86 0.86 0.89 0.90 0.95 0.98 1.14 1.35 1.47 1.56 1.63 1.68 1.72 1.90 1.99 2.09 2.25 2.41 2.31 2.24 2.17 2.14
1.09 1.16 1.12 1.14 1.30 1.29 0.79 0.66 0.98 1.25 1.05 1.07 1.09 1.03 1.03 0.92 0.78 0.77 0.80 0.76 0.72 0.74 0.87 0.98 1.11 1.15 1.08 1.06 1.18 1.36 1.49 1.57 1.74 1.78 1.86 1.91 2.05 2.13 2.27 2.63 2.63 2.66 2.66 2.48
1.19 1.33 1.46 1.44 1.44 1.17 1.01 1.06 1.10 1.17 1.14 1.14 1.02 0.91 0.93 0.89 0.83 0.86 0.94 0.92 0.82 0.78 0.89 0.98 1.14 1.23 1.24 1.30 1.43 1.62 1.68 1.76 1.84 1.98 2.10 2.16 2.23 2.39 2.48 2.64 2.70 2.75 2.73 2.58
1.16 1.06 1.43 1.59 1.47 1.33 1.19 1.09 1.13 1.29 1.23 1.11 0.97 0.92 0.94 0.94 0.87 0.84 0.86 0.90 0.88 0.85 0.94 1.06 1.18 1.39 1.51 1.58 1.71 1.85 1.96 2.05 2.16 2.29 2.37 2.40 2.43 2.45 2.50 2.67 2.70 2.72 2.68 2.55
1.13 1.11 1.45 1.73 1.65 1.63 1.44 1.14 1.06 1.09 1.06 0.97 0.98 0.96 0.95 1.00 0.94 0.86 0.83 0.84 0.91 1.03 1.13 1.22 1.39 1.56 1.61 1.72 1.81 1.93 2.13 2.32 2.40 2.41 2.41 2.38 2.39 2.50 2.59 2.58 2.57 2.63 2.67 2.67
1.33 1.32 1.63 1.95 1.73 1.71 1.62 1.32 1.14 1.02 0.95 0.95 1.08 1.11 1.01 1.02 1.05 1.00 1.00 1.01 1.05 1.14 1.27 1.40 1.53 1.68 1.77 1.92 2.04 2.14 2.30 2.51 2.68 2.62 2.54 2.54 2.58 2.61 2.59 2.56 2.50 2.54 2.47 2.43